Retour au catalogue

ARIANE 44LP DEB

ActifGTO
NORAD 25541·DEBRIS·🇫🇷 France

Lancé Dec 11, 1988 depuis Guiana Space Centre

Loading…

TLE

PériméSource: Space-Track

Époque: Sep 14, 2026, 00:39 UTC

1 25541U 88109H   26257.02764347 -.00000111  00000-0  98282-4 0  9995
2 25541   6.6396 120.6114 7068549 281.7271  12.7065  2.41419582239608

Suivez ARIANE 44LP DEB en temps réel avec AllMySat

Download on the App Store